Year,Month,Day,Hour,Minute,Value (Times are PST for temperature in C)
2018,08,03,00,00,15.30
2018,08,03,00,01,15.30
2018,08,03,00,02,15.30
2018,08,03,00,03,15.30
2018,08,03,00,04,15.30
2018,08,03,00,05,15.30
2018,08,03,00,06,15.30
2018,08,03,00,07,15.30
2018,08,03,00,08,15.30
2018,08,03,00,09,15.30
2018,08,03,00,10,15.30
2018,08,03,00,11,15.30
2018,08,03,00,12,15.20
2018,08,03,00,13,15.20
2018,08,03,00,14,15.20
2018,08,03,00,15,15.20
2018,08,03,00,16,15.20
2018,08,03,00,17,15.20
2018,08,03,00,18,15.20
2018,08,03,00,19,15.20
2018,08,03,00,20,15.10
2018,08,03,00,21,15.10
2018,08,03,00,22,15.10
2018,08,03,00,23,15.10
2018,08,03,00,24,15.10
2018,08,03,00,25,15.10
2018,08,03,00,26,15.10
2018,08,03,00,27,15.10
2018,08,03,00,28,15.10
2018,08,03,00,29,15.10
2018,08,03,00,30,15.10
2018,08,03,00,31,15.10
2018,08,03,00,32,15.10
2018,08,03,00,33,15.10
2018,08,03,00,34,15.00
2018,08,03,00,35,15.00
2018,08,03,00,36,15.00
2018,08,03,00,37,15.00
2018,08,03,00,38,14.90
2018,08,03,00,39,14.90
2018,08,03,00,40,14.90
2018,08,03,00,41,14.90
2018,08,03,00,42,14.90
2018,08,03,00,43,14.90
2018,08,03,00,44,14.90
2018,08,03,00,45,14.90
2018,08,03,00,46,14.90
2018,08,03,00,47,14.90
2018,08,03,00,48,14.80
2018,08,03,00,49,14.80
2018,08,03,00,50,14.80
2018,08,03,00,51,14.80
2018,08,03,00,52,14.80
2018,08,03,00,53,14.70
2018,08,03,00,54,14.70
2018,08,03,00,55,14.70
2018,08,03,00,56,14.70
2018,08,03,00,57,14.60
2018,08,03,00,58,14.60
2018,08,03,00,59,14.60
2018,08,03,01,00,14.50
2018,08,03,01,01,14.50
2018,08,03,01,02,14.50
2018,08,03,01,03,14.50
2018,08,03,01,04,14.40
2018,08,03,01,05,14.40
2018,08,03,01,06,14.40
2018,08,03,01,07,14.40
2018,08,03,01,08,14.40
2018,08,03,01,09,14.30
2018,08,03,01,10,14.30
2018,08,03,01,11,14.30
2018,08,03,01,12,14.30
2018,08,03,01,13,14.20
2018,08,03,01,14,14.20
2018,08,03,01,15,14.20
2018,08,03,01,16,14.20
2018,08,03,01,17,14.20
2018,08,03,01,18,14.10
2018,08,03,01,19,14.10
2018,08,03,01,20,14.10
2018,08,03,01,21,14.10
2018,08,03,01,22,14.00
2018,08,03,01,23,14.00
2018,08,03,01,24,14.00
2018,08,03,01,25,13.90
2018,08,03,01,26,13.90
2018,08,03,01,27,13.90
2018,08,03,01,28,13.90
2018,08,03,01,29,13.90
2018,08,03,01,30,13.80
2018,08,03,01,31,13.80
2018,08,03,01,32,13.80
2018,08,03,01,33,13.80
2018,08,03,01,34,13.80
2018,08,03,01,35,13.80
2018,08,03,01,36,13.80
2018,08,03,01,37,13.80
2018,08,03,01,38,13.80
2018,08,03,01,39,13.80
2018,08,03,01,40,13.80
2018,08,03,01,41,13.80
2018,08,03,01,42,13.80
2018,08,03,01,43,13.80
2018,08,03,01,44,13.80
2018,08,03,01,45,13.80
2018,08,03,01,46,13.80
2018,08,03,01,47,13.80
2018,08,03,01,48,13.70
2018,08,03,01,49,13.70
2018,08,03,01,50,13.70
2018,08,03,01,51,13.70
2018,08,03,01,52,13.70
2018,08,03,01,53,13.70
2018,08,03,01,54,13.70
2018,08,03,01,55,13.60
2018,08,03,01,56,13.60
2018,08,03,01,57,13.60
2018,08,03,01,58,13.60
2018,08,03,01,59,13.60
2018,08,03,02,00,13.60
2018,08,03,02,01,13.60
2018,08,03,02,02,13.60
2018,08,03,02,03,13.60
2018,08,03,02,04,13.60
2018,08,03,02,05,13.60
2018,08,03,02,06,13.60
2018,08,03,02,07,13.50
2018,08,03,02,08,13.50
2018,08,03,02,09,13.50
2018,08,03,02,10,13.50
2018,08,03,02,11,13.50
2018,08,03,02,12,13.50
2018,08,03,02,13,13.50
2018,08,03,02,14,13.50
2018,08,03,02,15,13.50
2018,08,03,02,16,13.50
2018,08,03,02,17,13.50
2018,08,03,02,18,13.60
2018,08,03,02,19,13.60
2018,08,03,02,20,13.60
2018,08,03,02,21,13.60
2018,08,03,02,22,13.60
2018,08,03,02,23,13.60
2018,08,03,02,24,13.60
2018,08,03,02,25,13.60
2018,08,03,02,26,13.60
2018,08,03,02,27,13.60
2018,08,03,02,28,13.60
2018,08,03,02,29,13.50
2018,08,03,02,30,13.50
2018,08,03,02,31,13.50
2018,08,03,02,32,13.40
2018,08,03,02,33,13.40
2018,08,03,02,34,13.40
2018,08,03,02,35,13.40
2018,08,03,02,36,13.30
2018,08,03,02,37,13.30
2018,08,03,02,38,13.30
2018,08,03,02,39,13.30
2018,08,03,02,40,13.30
2018,08,03,02,41,13.30
2018,08,03,02,42,13.30
2018,08,03,02,43,13.30
2018,08,03,02,44,13.30
2018,08,03,02,45,13.30
2018,08,03,02,46,13.30
2018,08,03,02,47,13.30
2018,08,03,02,48,13.30
2018,08,03,02,49,13.30
2018,08,03,02,50,13.30
2018,08,03,02,51,13.20
2018,08,03,02,52,13.20
2018,08,03,02,53,13.20
2018,08,03,02,54,13.20
2018,08,03,02,55,13.20
2018,08,03,02,56,13.20
2018,08,03,02,57,13.20
2018,08,03,02,58,13.20
2018,08,03,02,59,13.20
2018,08,03,03,00,13.20
2018,08,03,03,01,13.20
2018,08,03,03,02,13.20
2018,08,03,03,03,13.20
2018,08,03,03,04,13.20
2018,08,03,03,05,13.20
2018,08,03,03,06,13.20
2018,08,03,03,07,13.20
2018,08,03,03,08,13.20
2018,08,03,03,09,13.20
2018,08,03,03,10,13.20
2018,08,03,03,11,13.20
2018,08,03,03,12,13.20
2018,08,03,03,13,13.20
2018,08,03,03,14,13.20
2018,08,03,03,15,13.20
2018,08,03,03,16,13.20
2018,08,03,03,17,13.20
2018,08,03,03,18,13.20
2018,08,03,03,19,13.20
2018,08,03,03,20,13.10
2018,08,03,03,21,13.10
2018,08,03,03,22,13.10
2018,08,03,03,23,13.10
2018,08,03,03,24,13.10
2018,08,03,03,25,13.10
2018,08,03,03,26,13.10
2018,08,03,03,27,13.10
2018,08,03,03,28,13.10
2018,08,03,03,29,13.10
2018,08,03,03,30,13.10
2018,08,03,03,31,13.20
2018,08,03,03,32,13.20
2018,08,03,03,33,13.20
2018,08,03,03,34,13.20
2018,08,03,03,35,13.20
2018,08,03,03,36,13.20
2018,08,03,03,37,13.20
2018,08,03,03,38,13.20
2018,08,03,03,39,13.20
2018,08,03,03,40,13.30
2018,08,03,03,41,13.30
2018,08,03,03,42,13.30
2018,08,03,03,43,13.30
2018,08,03,03,44,13.40
2018,08,03,03,45,13.40
2018,08,03,03,46,13.40
2018,08,03,03,47,13.40
2018,08,03,03,48,13.50
2018,08,03,03,49,13.50
2018,08,03,03,50,13.50
2018,08,03,03,51,13.50
2018,08,03,03,52,13.50
2018,08,03,03,53,13.60
2018,08,03,03,54,13.60
2018,08,03,03,55,13.60
2018,08,03,03,56,13.60
2018,08,03,03,57,13.60
2018,08,03,03,58,13.60
2018,08,03,03,59,13.60
2018,08,03,04,00,13.60
2018,08,03,04,01,13.60
2018,08,03,04,02,13.60
2018,08,03,04,03,13.60
2018,08,03,04,04,13.60
2018,08,03,04,05,13.60
2018,08,03,04,06,13.60
2018,08,03,04,07,13.60
2018,08,03,04,08,13.60
2018,08,03,04,09,13.60
2018,08,03,04,10,13.60
2018,08,03,04,11,13.60
2018,08,03,04,12,13.60
2018,08,03,04,13,13.60
2018,08,03,04,14,13.60
2018,08,03,04,15,13.60
2018,08,03,04,16,13.60
2018,08,03,04,17,13.60
2018,08,03,04,18,13.60
2018,08,03,04,19,13.60
2018,08,03,04,20,13.60
2018,08,03,04,21,13.60
2018,08,03,04,22,13.60
2018,08,03,04,23,13.60
2018,08,03,04,24,13.60
2018,08,03,04,25,13.60
2018,08,03,04,26,13.70
2018,08,03,04,27,13.70
2018,08,03,04,28,13.70
2018,08,03,04,29,13.70
2018,08,03,04,30,13.70
2018,08,03,04,31,13.70
2018,08,03,04,32,13.70
2018,08,03,04,33,13.70
2018,08,03,04,34,13.70
2018,08,03,04,35,13.70
2018,08,03,04,36,13.70
2018,08,03,04,37,13.70
2018,08,03,04,38,13.70
2018,08,03,04,39,13.70
2018,08,03,04,40,13.70
2018,08,03,04,41,13.70
2018,08,03,04,42,13.70
2018,08,03,04,43,13.70
2018,08,03,04,44,13.70
2018,08,03,04,45,13.70
2018,08,03,04,46,13.70
2018,08,03,04,47,13.70
2018,08,03,04,48,13.70
2018,08,03,04,49,13.70
2018,08,03,04,50,13.70
2018,08,03,04,51,13.70
2018,08,03,04,52,13.60
2018,08,03,04,53,13.60
2018,08,03,04,54,13.60
2018,08,03,04,55,13.60
2018,08,03,04,56,13.60
2018,08,03,04,57,13.60
2018,08,03,04,58,13.60
2018,08,03,04,59,13.60
2018,08,03,05,00,13.60
2018,08,03,05,01,13.60
2018,08,03,05,02,13.60
2018,08,03,05,03,13.60
2018,08,03,05,04,13.60
2018,08,03,05,05,13.60
2018,08,03,05,06,13.70
2018,08,03,05,07,13.70
2018,08,03,05,08,13.70
2018,08,03,05,09,13.70
2018,08,03,05,10,13.70
2018,08,03,05,11,13.70
2018,08,03,05,12,13.70
2018,08,03,05,13,13.70
2018,08,03,05,14,13.80
2018,08,03,05,15,13.80
2018,08,03,05,16,13.80
2018,08,03,05,17,13.80
2018,08,03,05,18,13.80
2018,08,03,05,19,13.90
2018,08,03,05,20,13.90
2018,08,03,05,21,13.90
2018,08,03,05,22,13.90
2018,08,03,05,23,13.90
2018,08,03,05,24,13.90
2018,08,03,05,25,13.90
2018,08,03,05,26,13.90
2018,08,03,05,27,13.90
2018,08,03,05,28,14.00
2018,08,03,05,29,14.00
2018,08,03,05,30,14.00
2018,08,03,05,31,14.00
2018,08,03,05,32,14.00
2018,08,03,05,33,14.10
2018,08,03,05,34,14.10
2018,08,03,05,35,14.10
2018,08,03,05,36,14.10
2018,08,03,05,37,14.10
2018,08,03,05,38,14.10
2018,08,03,05,39,14.20
2018,08,03,05,40,14.20
2018,08,03,05,41,14.20
2018,08,03,05,42,14.20
2018,08,03,05,43,14.20
2018,08,03,05,44,14.20
2018,08,03,05,45,14.20
2018,08,03,05,46,14.20
2018,08,03,05,47,14.20
2018,08,03,05,48,14.20
2018,08,03,05,49,14.30
2018,08,03,05,50,14.30
2018,08,03,05,51,14.30
2018,08,03,05,52,14.30
2018,08,03,05,53,14.30
2018,08,03,05,54,14.30
2018,08,03,05,55,14.30
2018,08,03,05,56,14.30
2018,08,03,05,57,14.30
2018,08,03,05,58,14.30
2018,08,03,05,59,14.30
2018,08,03,06,00,14.30
2018,08,03,06,01,14.30
2018,08,03,06,02,14.30
2018,08,03,06,03,14.30
2018,08,03,06,04,14.30
2018,08,03,06,05,14.30
2018,08,03,06,06,14.30
2018,08,03,06,07,14.30
2018,08,03,06,08,14.30
2018,08,03,06,09,14.30
2018,08,03,06,10,14.40
2018,08,03,06,11,14.40
2018,08,03,06,12,14.40
2018,08,03,06,13,14.40
2018,08,03,06,14,14.40
2018,08,03,06,15,14.40
2018,08,03,06,16,14.40
2018,08,03,06,17,14.40
2018,08,03,06,18,14.40
2018,08,03,06,19,14.50
2018,08,03,06,20,14.50
2018,08,03,06,21,14.50
2018,08,03,06,22,14.50
2018,08,03,06,23,14.60
2018,08,03,06,24,14.60
2018,08,03,06,25,14.60
2018,08,03,06,26,14.60
2018,08,03,06,27,14.60
2018,08,03,06,28,14.60
2018,08,03,06,29,14.60
2018,08,03,06,30,14.60
2018,08,03,06,31,14.60
2018,08,03,06,32,14.60
2018,08,03,06,33,14.60
2018,08,03,06,34,14.70
2018,08,03,06,35,14.70
2018,08,03,06,36,14.70
2018,08,03,06,37,14.70
2018,08,03,06,38,14.70
2018,08,03,06,39,14.70
2018,08,03,06,40,14.70
2018,08,03,06,41,14.70
2018,08,03,06,42,14.70
2018,08,03,06,43,14.70
2018,08,03,06,44,14.70
2018,08,03,06,45,14.70
2018,08,03,06,46,14.70
2018,08,03,06,47,14.70
2018,08,03,06,48,14.70
2018,08,03,06,49,14.70
2018,08,03,06,50,14.70
2018,08,03,06,51,14.80
2018,08,03,06,52,14.80
2018,08,03,06,53,14.80
2018,08,03,06,54,14.80
2018,08,03,06,55,14.80
2018,08,03,06,56,14.80
2018,08,03,06,57,14.80
2018,08,03,06,58,14.80
2018,08,03,06,59,14.80
2018,08,03,07,00,14.80
2018,08,03,07,01,14.80
2018,08,03,07,02,14.80
2018,08,03,07,03,14.80
2018,08,03,07,04,14.80
2018,08,03,07,05,14.80
2018,08,03,07,06,14.80
2018,08,03,07,07,14.80
2018,08,03,07,08,14.90
2018,08,03,07,09,14.90
2018,08,03,07,10,14.90
2018,08,03,07,11,14.90
2018,08,03,07,12,14.90
2018,08,03,07,13,14.90
2018,08,03,07,14,14.90
2018,08,03,07,15,14.90
2018,08,03,07,16,14.90
2018,08,03,07,17,14.90
2018,08,03,07,18,15.00
2018,08,03,07,19,15.00
2018,08,03,07,20,15.00
2018,08,03,07,21,15.00
2018,08,03,07,22,15.00
2018,08,03,07,23,15.00
2018,08,03,07,24,15.00
2018,08,03,07,25,15.10
2018,08,03,07,26,15.10
2018,08,03,07,27,15.10
2018,08,03,07,28,15.10
2018,08,03,07,29,15.10
2018,08,03,07,30,15.10
2018,08,03,07,31,15.10
2018,08,03,07,32,15.10
2018,08,03,07,33,15.10
2018,08,03,07,34,15.10
2018,08,03,07,35,15.20
2018,08,03,07,36,15.20
2018,08,03,07,37,15.20
2018,08,03,07,38,15.20
2018,08,03,07,39,15.20
2018,08,03,07,40,15.20
2018,08,03,07,41,15.20
2018,08,03,07,42,15.20
2018,08,03,07,43,15.20
2018,08,03,07,44,15.20
2018,08,03,07,45,15.20
2018,08,03,07,46,15.20
2018,08,03,07,47,15.30
2018,08,03,07,48,15.30
2018,08,03,07,49,15.30
2018,08,03,07,50,15.30
2018,08,03,07,51,15.30
2018,08,03,07,52,15.30
2018,08,03,07,53,15.30
2018,08,03,07,54,15.30
2018,08,03,07,55,15.30
2018,08,03,07,56,15.30
2018,08,03,07,57,15.40
2018,08,03,07,58,15.40
2018,08,03,07,59,15.40
2018,08,03,08,00,15.40
2018,08,03,08,01,15.40
2018,08,03,08,02,15.40
2018,08,03,08,03,15.50
2018,08,03,08,04,15.50
2018,08,03,08,05,15.50
2018,08,03,08,06,15.50
2018,08,03,08,07,15.60
2018,08,03,08,08,15.60
2018,08,03,08,09,15.60
2018,08,03,08,10,15.60
2018,08,03,08,11,15.60
2018,08,03,08,12,15.60
2018,08,03,08,13,15.60
2018,08,03,08,14,15.70
2018,08,03,08,15,15.70
2018,08,03,08,16,15.70
2018,08,03,08,17,15.80
2018,08,03,08,18,15.80
2018,08,03,08,19,15.80
2018,08,03,08,20,15.80
2018,08,03,08,21,15.90
2018,08,03,08,22,15.90
2018,08,03,08,23,15.90
2018,08,03,08,24,15.90
2018,08,03,08,25,15.90
2018,08,03,08,26,15.90
2018,08,03,08,27,15.90
2018,08,03,08,28,15.90
2018,08,03,08,29,15.90
2018,08,03,08,30,15.90
2018,08,03,08,31,15.90
2018,08,03,08,32,15.90
2018,08,03,08,33,15.90
2018,08,03,08,34,16.00
2018,08,03,08,35,16.00
2018,08,03,08,36,16.00
2018,08,03,08,37,16.10
2018,08,03,08,38,16.10
2018,08,03,08,39,16.10
2018,08,03,08,40,16.10
2018,08,03,08,41,16.10
2018,08,03,08,42,16.20
2018,08,03,08,43,16.20
2018,08,03,08,44,16.20
2018,08,03,08,45,16.20
2018,08,03,08,46,16.30
2018,08,03,08,47,16.30
2018,08,03,08,48,16.30
2018,08,03,08,49,16.30
2018,08,03,08,50,16.30
2018,08,03,08,51,16.30
2018,08,03,08,52,16.30
2018,08,03,08,53,16.30
2018,08,03,08,54,16.40
2018,08,03,08,55,16.40
2018,08,03,08,56,16.40
2018,08,03,08,57,16.40
2018,08,03,08,58,16.40
2018,08,03,08,59,16.40
2018,08,03,09,00,16.40
2018,08,03,09,01,16.40
2018,08,03,09,02,16.40
2018,08,03,09,03,16.40
2018,08,03,09,04,16.40
2018,08,03,09,05,16.40
2018,08,03,09,06,16.40
2018,08,03,09,07,16.40
2018,08,03,09,08,16.40
2018,08,03,09,09,16.40
2018,08,03,09,10,16.50
2018,08,03,09,11,16.50
2018,08,03,09,12,16.60
2018,08,03,09,13,16.60
2018,08,03,09,14,16.60
2018,08,03,09,15,16.70
2018,08,03,09,16,16.70
2018,08,03,09,17,16.70
2018,08,03,09,18,16.80
2018,08,03,09,19,16.80
2018,08,03,09,20,16.80
2018,08,03,09,21,16.80
2018,08,03,09,22,16.80
2018,08,03,09,23,16.80
2018,08,03,09,24,16.80
2018,08,03,09,25,16.90
2018,08,03,09,26,16.90
2018,08,03,09,27,16.90
2018,08,03,09,28,16.90
2018,08,03,09,29,16.90
2018,08,03,09,30,16.90
2018,08,03,09,31,16.90
2018,08,03,09,32,16.90
2018,08,03,09,33,16.90
2018,08,03,09,34,16.90
2018,08,03,09,35,17.00
2018,08,03,09,36,17.00
2018,08,03,09,37,17.00
2018,08,03,09,38,17.10
2018,08,03,09,39,17.20
2018,08,03,09,40,17.30
2018,08,03,09,41,17.30
2018,08,03,09,42,17.30
2018,08,03,09,43,17.30
2018,08,03,09,44,17.40
2018,08,03,09,45,17.40
2018,08,03,09,46,17.40
2018,08,03,09,47,17.40
2018,08,03,09,48,17.50
2018,08,03,09,49,17.50
2018,08,03,09,50,17.60
2018,08,03,09,51,17.60
2018,08,03,09,52,17.60
2018,08,03,09,53,17.60
2018,08,03,09,54,17.70
2018,08,03,09,55,17.70
2018,08,03,09,56,17.70
2018,08,03,09,57,17.80
2018,08,03,09,58,17.80
2018,08,03,09,59,17.80
2018,08,03,10,00,17.80
2018,08,03,10,01,17.70
2018,08,03,10,02,17.70
2018,08,03,10,03,17.70
2018,08,03,10,04,17.70
2018,08,03,10,05,17.70
2018,08,03,10,06,17.80
2018,08,03,10,07,17.80
2018,08,03,10,08,17.90
2018,08,03,10,09,17.90
2018,08,03,10,10,17.90
2018,08,03,10,11,17.90
2018,08,03,10,12,18.00
2018,08,03,10,13,18.00
2018,08,03,10,14,18.00
2018,08,03,10,15,18.10
2018,08,03,10,16,18.10
2018,08,03,10,17,18.10
2018,08,03,10,18,18.10
2018,08,03,10,19,18.10
2018,08,03,10,20,18.10
2018,08,03,10,21,18.10
2018,08,03,10,22,18.00
2018,08,03,10,23,17.90
2018,08,03,10,24,17.90
2018,08,03,10,25,17.90
2018,08,03,10,26,17.90
2018,08,03,10,27,17.90
2018,08,03,10,28,18.00
2018,08,03,10,29,18.00
2018,08,03,10,30,18.00
2018,08,03,10,31,18.10
2018,08,03,10,32,18.10
2018,08,03,10,33,18.10
2018,08,03,10,34,18.10
2018,08,03,10,35,18.20
2018,08,03,10,36,18.20
2018,08,03,10,37,18.20
2018,08,03,10,38,18.20
2018,08,03,10,39,18.20
2018,08,03,10,40,18.10
2018,08,03,10,41,18.10
2018,08,03,10,42,18.10
2018,08,03,10,43,18.00
2018,08,03,10,44,18.00
2018,08,03,10,45,18.00
2018,08,03,10,46,18.00
2018,08,03,10,47,17.90
2018,08,03,10,48,17.90
2018,08,03,10,49,17.80
2018,08,03,10,50,17.80
2018,08,03,10,51,17.70
2018,08,03,10,52,17.60
2018,08,03,10,53,17.60
2018,08,03,10,54,17.50
2018,08,03,10,55,17.50
2018,08,03,10,56,17.50
2018,08,03,10,57,17.40
2018,08,03,10,58,17.40
2018,08,03,10,59,17.30
2018,08,03,11,00,17.20
2018,08,03,11,01,17.20
2018,08,03,11,02,17.10
2018,08,03,11,03,17.00
2018,08,03,11,04,16.90
2018,08,03,11,05,16.90
2018,08,03,11,06,16.90
2018,08,03,11,07,16.90
2018,08,03,11,08,16.90
2018,08,03,11,09,16.80
2018,08,03,11,10,16.80
2018,08,03,11,11,16.70
2018,08,03,11,12,16.80
2018,08,03,11,13,16.80
2018,08,03,11,14,16.80
2018,08,03,11,15,16.90
2018,08,03,11,16,16.90
2018,08,03,11,17,17.00
2018,08,03,11,18,17.00
2018,08,03,11,19,16.90
2018,08,03,11,20,16.90
2018,08,03,11,21,16.80
2018,08,03,11,22,16.80
2018,08,03,11,23,16.80
2018,08,03,11,24,16.80
2018,08,03,11,25,16.90
2018,08,03,11,26,16.90
2018,08,03,11,27,16.90
2018,08,03,11,28,17.00
2018,08,03,11,29,17.00
2018,08,03,11,30,17.10
2018,08,03,11,31,17.20
2018,08,03,11,32,17.20
2018,08,03,11,33,17.20
2018,08,03,11,34,17.20
2018,08,03,11,35,17.20
2018,08,03,11,36,17.20
2018,08,03,11,37,17.20
2018,08,03,11,38,17.30
2018,08,03,11,39,17.30
2018,08,03,11,40,17.40
2018,08,03,11,41,17.40
2018,08,03,11,42,17.50
2018,08,03,11,43,17.50
2018,08,03,11,44,17.60
2018,08,03,11,45,17.60
2018,08,03,11,46,17.60
2018,08,03,11,47,17.50
2018,08,03,11,48,17.50
2018,08,03,11,49,17.60
2018,08,03,11,50,17.70
2018,08,03,11,51,17.80
2018,08,03,11,52,17.90
2018,08,03,11,53,18.00
2018,08,03,11,54,18.10
2018,08,03,11,55,18.10
2018,08,03,11,56,18.10
2018,08,03,11,57,18.10
2018,08,03,11,58,18.00
2018,08,03,11,59,18.10
2018,08,03,12,00,18.10
2018,08,03,12,01,18.20
2018,08,03,12,02,18.20
2018,08,03,12,03,18.30
2018,08,03,12,04,18.40
2018,08,03,12,05,18.40
2018,08,03,12,06,18.50
2018,08,03,12,07,18.50
2018,08,03,12,08,18.50
2018,08,03,12,09,18.60
2018,08,03,12,10,18.60
2018,08,03,12,11,18.60
2018,08,03,12,12,18.60
2018,08,03,12,13,18.60
2018,08,03,12,14,18.60
2018,08,03,12,15,18.50
2018,08,03,12,16,18.60
2018,08,03,12,17,18.60
2018,08,03,12,18,18.70
2018,08,03,12,19,18.60
2018,08,03,12,20,18.60
2018,08,03,12,21,18.50
2018,08,03,12,22,18.30
2018,08,03,12,23,18.20
2018,08,03,12,24,18.20
2018,08,03,12,25,18.20
2018,08,03,12,26,18.10
2018,08,03,12,27,18.10
2018,08,03,12,28,18.10
2018,08,03,12,29,18.20
2018,08,03,12,30,18.20
2018,08,03,12,31,18.20
2018,08,03,12,32,18.30
2018,08,03,12,33,18.40
2018,08,03,12,34,18.50
2018,08,03,12,35,18.50
2018,08,03,12,36,18.50
2018,08,03,12,37,18.60
2018,08,03,12,38,18.60
2018,08,03,12,39,18.50
2018,08,03,12,40,18.50
2018,08,03,12,41,18.50
2018,08,03,12,42,18.50
2018,08,03,12,43,18.40
2018,08,03,12,44,18.50
2018,08,03,12,45,18.50
2018,08,03,12,46,18.50
2018,08,03,12,47,18.50
2018,08,03,12,48,18.50
2018,08,03,12,49,18.50
2018,08,03,12,50,18.60
2018,08,03,12,51,18.60
2018,08,03,12,52,18.70
2018,08,03,12,53,18.80
2018,08,03,12,54,19.00
2018,08,03,12,55,19.10
2018,08,03,12,56,19.20
2018,08,03,12,57,19.20
2018,08,03,12,58,19.20
2018,08,03,12,59,19.30
2018,08,03,13,00,19.20
2018,08,03,13,01,19.20
2018,08,03,13,02,19.20
2018,08,03,13,03,19.10
2018,08,03,13,04,19.00
2018,08,03,13,05,19.00
2018,08,03,13,06,19.00
2018,08,03,13,07,19.10
2018,08,03,13,08,19.00
2018,08,03,13,09,19.10
2018,08,03,13,10,19.20
2018,08,03,13,11,19.40
2018,08,03,13,12,19.60
2018,08,03,13,13,19.80
2018,08,03,13,14,19.90
2018,08,03,13,15,19.90
2018,08,03,13,16,19.90
2018,08,03,13,17,19.90
2018,08,03,13,18,19.90
2018,08,03,13,19,19.80
2018,08,03,13,20,19.70
2018,08,03,13,21,19.60
2018,08,03,13,22,19.60
2018,08,03,13,23,19.60
2018,08,03,13,24,19.50
2018,08,03,13,25,19.60
2018,08,03,13,26,19.70
2018,08,03,13,27,19.80
2018,08,03,13,28,20.00
2018,08,03,13,29,20.10
2018,08,03,13,30,20.10
2018,08,03,13,31,20.20
2018,08,03,13,32,20.20
2018,08,03,13,33,20.30
2018,08,03,13,34,20.40
2018,08,03,13,35,20.50
2018,08,03,13,36,20.50
2018,08,03,13,37,20.40
2018,08,03,13,38,20.40
2018,08,03,13,39,20.50
2018,08,03,13,40,20.50
2018,08,03,13,41,20.60
2018,08,03,13,42,20.70
2018,08,03,13,43,20.80
2018,08,03,13,44,20.80
2018,08,03,13,45,20.80
2018,08,03,13,46,20.80
2018,08,03,13,47,20.90
2018,08,03,13,48,20.90
2018,08,03,13,49,20.90
2018,08,03,13,50,21.00
2018,08,03,13,51,21.00
2018,08,03,13,52,21.10
2018,08,03,13,53,21.20
2018,08,03,13,54,21.20
2018,08,03,13,55,21.30
2018,08,03,13,56,21.30
2018,08,03,13,57,21.20
2018,08,03,13,58,21.20
2018,08,03,13,59,21.20
2018,08,03,14,00,21.20
2018,08,03,14,01,21.20
2018,08,03,14,02,21.20
2018,08,03,14,03,21.30
2018,08,03,14,04,21.40
2018,08,03,14,05,21.40
2018,08,03,14,06,21.40
2018,08,03,14,07,21.50
2018,08,03,14,08,21.50
2018,08,03,14,09,21.50
2018,08,03,14,10,21.50
2018,08,03,14,11,21.50
2018,08,03,14,12,21.50
2018,08,03,14,13,21.50
2018,08,03,14,14,21.50
2018,08,03,14,15,21.60
2018,08,03,14,16,21.60
2018,08,03,14,17,21.60
2018,08,03,14,18,21.60
2018,08,03,14,19,21.60
2018,08,03,14,20,21.60
2018,08,03,14,21,21.50
2018,08,03,14,22,21.40
2018,08,03,14,23,21.40
2018,08,03,14,24,21.30
2018,08,03,14,25,21.30
2018,08,03,14,26,21.30
2018,08,03,14,27,21.30
2018,08,03,14,28,21.20
2018,08,03,14,29,21.20
2018,08,03,14,30,21.10
2018,08,03,14,31,21.10
2018,08,03,14,32,21.10
2018,08,03,14,33,21.00
2018,08,03,14,34,20.90
2018,08,03,14,35,20.90
2018,08,03,14,36,20.80
2018,08,03,14,37,20.70
2018,08,03,14,38,20.60
2018,08,03,14,39,20.50
2018,08,03,14,40,20.40
2018,08,03,14,41,20.40
2018,08,03,14,42,20.30
2018,08,03,14,43,20.30
2018,08,03,14,44,20.30
2018,08,03,14,45,20.30
2018,08,03,14,46,20.30
2018,08,03,14,47,20.40
2018,08,03,14,48,20.40
2018,08,03,14,49,20.40
2018,08,03,14,50,20.50
2018,08,03,14,51,20.50
2018,08,03,14,52,20.50
2018,08,03,14,53,20.50
2018,08,03,14,54,20.60
2018,08,03,14,55,20.60
2018,08,03,14,56,20.60
2018,08,03,14,57,20.60
2018,08,03,14,58,20.50
2018,08,03,14,59,20.50
2018,08,03,15,00,20.50
2018,08,03,15,01,20.40
2018,08,03,15,02,20.40
2018,08,03,15,03,20.40
2018,08,03,15,04,20.50
2018,08,03,15,05,20.50
2018,08,03,15,06,20.50
2018,08,03,15,07,20.60
2018,08,03,15,08,20.70
2018,08,03,15,09,20.80
2018,08,03,15,10,20.90
2018,08,03,15,11,21.00
2018,08,03,15,12,21.10
2018,08,03,15,13,21.10
2018,08,03,15,14,21.10
2018,08,03,15,15,21.20
2018,08,03,15,16,21.20
2018,08,03,15,17,21.30
2018,08,03,15,18,21.30
2018,08,03,15,19,21.30
2018,08,03,15,20,21.30
2018,08,03,15,21,21.20
2018,08,03,15,22,21.10
2018,08,03,15,23,21.00
2018,08,03,15,24,21.00
2018,08,03,15,25,20.90
2018,08,03,15,26,20.90
2018,08,03,15,27,20.90
2018,08,03,15,28,20.80
2018,08,03,15,29,20.70
2018,08,03,15,30,20.70
2018,08,03,15,31,20.80
2018,08,03,15,32,20.80
2018,08,03,15,33,20.80
2018,08,03,15,34,20.80
2018,08,03,15,35,20.90
2018,08,03,15,36,21.00
2018,08,03,15,37,21.10
2018,08,03,15,38,21.20
2018,08,03,15,39,21.20
2018,08,03,15,40,21.10
2018,08,03,15,41,21.20
2018,08,03,15,42,21.10
2018,08,03,15,43,21.10
2018,08,03,15,44,21.00
2018,08,03,15,45,21.00
2018,08,03,15,46,20.90
2018,08,03,15,47,20.90
2018,08,03,15,48,20.80
2018,08,03,15,49,20.80
2018,08,03,15,50,20.70
2018,08,03,15,51,20.70
2018,08,03,15,52,20.80
2018,08,03,15,53,20.80
2018,08,03,15,54,20.90
2018,08,03,15,55,21.00
2018,08,03,15,56,20.90
2018,08,03,15,57,20.90
2018,08,03,15,58,20.90
2018,08,03,15,59,20.80
2018,08,03,16,00,20.80
2018,08,03,16,01,20.80
2018,08,03,16,02,20.80
2018,08,03,16,03,20.80
2018,08,03,16,04,20.80
2018,08,03,16,05,20.90
2018,08,03,16,06,21.00
2018,08,03,16,07,21.00
2018,08,03,16,08,21.10
2018,08,03,16,09,21.10
2018,08,03,16,10,21.20
2018,08,03,16,11,21.30
2018,08,03,16,12,21.30
2018,08,03,16,13,21.30
2018,08,03,16,14,21.30
2018,08,03,16,15,21.20
2018,08,03,16,16,21.20
2018,08,03,16,17,21.10
2018,08,03,16,18,21.10
2018,08,03,16,19,21.00
2018,08,03,16,20,20.90
2018,08,03,16,21,20.80
2018,08,03,16,22,20.70
2018,08,03,16,23,20.70
2018,08,03,16,24,20.70
2018,08,03,16,25,20.80
2018,08,03,16,26,20.90
2018,08,03,16,27,20.90
2018,08,03,16,28,21.00
2018,08,03,16,29,21.00
2018,08,03,16,30,21.00
2018,08,03,16,31,21.00
2018,08,03,16,32,20.90
2018,08,03,16,33,20.90
2018,08,03,16,34,20.80
2018,08,03,16,35,20.80
2018,08,03,16,36,20.80
2018,08,03,16,37,20.70
2018,08,03,16,38,20.70
2018,08,03,16,39,20.70
2018,08,03,16,40,20.70
2018,08,03,16,41,20.70
2018,08,03,16,42,20.70
2018,08,03,16,43,20.60
2018,08,03,16,44,20.70
2018,08,03,16,45,20.60
2018,08,03,16,46,20.60
2018,08,03,16,47,20.60
2018,08,03,16,48,20.60
2018,08,03,16,49,20.70
2018,08,03,16,50,20.80
2018,08,03,16,51,20.90
2018,08,03,16,52,20.90
2018,08,03,16,53,20.90
2018,08,03,16,54,20.90
2018,08,03,16,55,20.90
2018,08,03,16,56,20.90
2018,08,03,16,57,20.90
2018,08,03,16,58,20.90
2018,08,03,16,59,20.90
2018,08,03,17,00,20.90
2018,08,03,17,01,20.80
2018,08,03,17,02,20.80
2018,08,03,17,03,20.70
2018,08,03,17,04,20.70
2018,08,03,17,05,20.70
2018,08,03,17,06,20.70
2018,08,03,17,07,20.70
2018,08,03,17,08,20.70
2018,08,03,17,09,20.70
2018,08,03,17,10,20.70
2018,08,03,17,11,20.70
2018,08,03,17,12,20.70
2018,08,03,17,13,20.80
2018,08,03,17,14,20.80
2018,08,03,17,15,20.80
2018,08,03,17,16,20.80
2018,08,03,17,17,20.80
2018,08,03,17,18,20.70
2018,08,03,17,19,20.70